• In Portugal
  • List of Countries
  • For 7 days
  • Water Temperature
  • Satellite Maps
  • Weather Map
  • Weather Widgets
  • user-avatar
    Login

    Hourly Weather San Miguel de Tucumán

    Today, 23 April, Monday

    Time Temperature Precipitation Wind Pressure Humidity
    00:00 +26°C° 0.2 mm 1 mps 718 mmHg 76%
    01:00 +25°C° 0.2 mm 1 mps 718 mmHg 75%
    02:00 +25°C° 0.2 mm 1 mps 718 mmHg 74%
    03:00 +25°C° 0.2 mm 1 mps 719 mmHg 74%
    04:00 +24°C° 0.2 mm 1 mps 719 mmHg 74%
    05:00 +24°C° 0.2 mm 1 mps 719 mmHg 73%
    06:00 +25°C° 1 mm 1 mps 719 mmHg 74%
    07:00 +25°C° 1 mm 1 mps 720 mmHg 75%
    08:00 +26°C° 1 mm 1 mps 720 mmHg 75%
    09:00 +27°C° 1 mm 2 mps 720 mmHg 73%
    10:00 +28°C° 1 mm 2 mps 721 mmHg 70%
    11:00 +30°C° 1 mm 2 mps 721 mmHg 67%
    12:00 +30°C° 1.2 mm 2 mps 720 mmHg 66%
    13:00 +31°C° 1.2 mm 2 mps 720 mmHg 64%
    14:00 +31°C° 1.2 mm 2 mps 719 mmHg 63%
    15:00 +30°C° 0.7 mm 1 mps 719 mmHg 66%
    16:00 +30°C° 0.7 mm 1 mps 719 mmHg 70%
    17:00 +29°C° 0.7 mm 1 mps 718 mmHg 73%
    18:00 +28°C° 0.6 mm 1 mps 719 mmHg 77%
    19:00 +26°C° 0.6 mm 1 mps 719 mmHg 82%
    20:00 +25°C° 0.6 mm 2 mps 720 mmHg 86%
    21:00 +25°C° 0.5 mm 1 mps 720 mmHg 86%
    22:00 +25°C° 0.5 mm 1 mps 720 mmHg 86%
    23:00 +24°C° 0.5 mm 1 mps 721 mmHg 86%

    Tomorrow, 24 April, Tuesday

    Time Temperature Precipitation Wind Pressure Humidity
    00:00 +24°C° 0 mm 1 mps 720 mmHg 86%
    01:00 +24°C° 0 mm 1 mps 720 mmHg 86%
    02:00 +24°C° 0 mm 1 mps 720 mmHg 86%
    03:00 +23°C° 0 mm 1 mps 719 mmHg 86%
    04:00 +23°C° 0 mm 1 mps 719 mmHg 87%
    05:00 +23°C° 0 mm 1 mps 719 mmHg 87%
    06:00 +24°C° 0 mm 1 mps 719 mmHg 85%
    07:00 +24°C° 0 mm 1 mps 720 mmHg 82%
    08:00 +25°C° 0 mm 1 mps 720 mmHg 80%
    09:00 +27°C° 0 mm 2 mps 720 mmHg 73%
    10:00 +29°C° 0 mm 2 mps 720 mmHg 65%
    11:00 +31°C° 0 mm 3 mps 720 mmHg 58%
    12:00 +33°C° 0 mm 3 mps 720 mmHg 55%
    13:00 +34°C° 0 mm 3 mps 719 mmHg 53%
    14:00 +35°C° 0 mm 3 mps 718 mmHg 51%
    15:00 +34°C° 0.4 mm 3 mps 718 mmHg 55%
    16:00 +32°C° 0.4 mm 2 mps 718 mmHg 60%
    17:00 +31°C° 0.4 mm 2 mps 717 mmHg 65%
    18:00 +30°C° 0.2 mm 2 mps 718 mmHg 69%
    19:00 +28°C° 0.2 mm 2 mps 718 mmHg 74%
    20:00 +27°C° 0.2 mm 2 mps 719 mmHg 78%
    21:00 +26°C° 0 mm 1 mps 719 mmHg 79%
    22:00 +26°C° 0 mm 1 mps 720 mmHg 79%
    23:00 +26°C° 0 mm 1 mps 720 mmHg 80%

    Day after tomorrow, 25 April, Wednesday

    Time Temperature Precipitation Wind Pressure Humidity
    00:00 +25°C° 0.1 mm 1 mps 720 mmHg 80%
    01:00 +25°C° 0.1 mm 1 mps 720 mmHg 79%
    02:00 +25°C° 0.1 mm 1 mps 720 mmHg 79%
    03:00 +24°C° 0.1 mm 1 mps 719 mmHg 79%
    04:00 +24°C° 0.1 mm 1 mps 719 mmHg 79%
    05:00 +24°C° 0.1 mm 1 mps 719 mmHg 80%
    06:00 +25°C° 0 mm 1 mps 720 mmHg 78%
    07:00 +25°C° 0 mm 1 mps 721 mmHg 76%
    08:00 +26°C° 0 mm 1 mps 721 mmHg 75%
    09:00 +28°C° 0 mm 1 mps 721 mmHg 70%
    10:00 +29°C° 0 mm 1 mps 722 mmHg 65%
    11:00 +31°C° 0 mm 1 mps 722 mmHg 60%
    12:00 +32°C° 0.2 mm 2 mps 721 mmHg 59%
    13:00 +32°C° 0.2 mm 2 mps 720 mmHg 58%
    14:00 +32°C° 0.2 mm 2 mps 719 mmHg 57%
    15:00 +32°C° 0.7 mm 2 mps 719 mmHg 60%
    16:00 +31°C° 0.7 mm 2 mps 718 mmHg 63%
    17:00 +30°C° 0.7 mm 2 mps 718 mmHg 66%
    18:00 +29°C° 0.1 mm 2 mps 718 mmHg 69%
    19:00 +28°C° 0.1 mm 2 mps 719 mmHg 73%
    20:00 +26°C° 0.1 mm 2 mps 719 mmHg 76%
    21:00 +26°C° 0 mm 1 mps 719 mmHg 77%
    22:00 +25°C° 0 mm 1 mps 719 mmHg 77%
    23:00 +25°C° 0 mm 1 mps 719 mmHg 78%

    26 April, Thursday

    Time Temperature Precipitation Wind Pressure Humidity
    00:00 +25°C° 0 mm 1 mps 719 mmHg 77%
    01:00 +25°C° 0 mm 1 mps 718 mmHg 75%
    02:00 +25°C° 0 mm 1 mps 718 mmHg 74%
    03:00 +24°C° 0 mm 2 mps 718 mmHg 73%
    04:00 +24°C° 0 mm 2 mps 717 mmHg 72%
    05:00 +24°C° 0 mm 2 mps 717 mmHg 70%
    06:00 +25°C° 0 mm 2 mps 717 mmHg 69%
    07:00 +25°C° 0 mm 2 mps 717 mmHg 68%
    08:00 +26°C° 0 mm 2 mps 717 mmHg 67%
    09:00 +28°C° 0 mm 3 mps 717 mmHg 60%
    10:00 +29°C° 0 mm 3 mps 717 mmHg 54%
    11:00 +32°C° 0 mm 4 mps 717 mmHg 48%
    12:00 +33°C° 0 mm 4 mps 716 mmHg 46%
    13:00 +34°C° 0 mm 4 mps 715 mmHg 44%
    14:00 +35°C° 0 mm 4 mps 715 mmHg 43%
    15:00 +34°C° 0 mm 3 mps 714 mmHg 47%
    16:00 +33°C° 0 mm 3 mps 714 mmHg 51%
    17:00 +31°C° 0 mm 2 mps 714 mmHg 55%
    18:00 +30°C° 0 mm 2 mps 714 mmHg 56%
    19:00 +29°C° 0 mm 2 mps 715 mmHg 56%
    20:00 +28°C° 0 mm 2 mps 715 mmHg 57%
    21:00 +27°C° 0 mm 2 mps 715 mmHg 57%
    22:00 +27°C° 0 mm 2 mps 715 mmHg 57%
    23:00 +27°C° 0 mm 2 mps 715 mmHg 57%

    27 April, Friday

    Time Temperature Precipitation Wind Pressure Humidity
    00:00 +26°C° 0 mm 2 mps 715 mmHg 57%
    01:00 +26°C° 0 mm 2 mps 715 mmHg 57%
    02:00 +25°C° 0 mm 2 mps 715 mmHg 57%
    03:00 +25°C° 0 mm 2 mps 715 mmHg 57%
    04:00 +24°C° 0 mm 2 mps 715 mmHg 57%
    05:00 +24°C° 0 mm 1 mps 715 mmHg 57%
    06:00 +24°C° 0 mm 1 mps 716 mmHg 56%
    07:00 +25°C° 0 mm 1 mps 717 mmHg 55%
    08:00 +25°C° 0 mm 1 mps 717 mmHg 55%
    09:00 +27°C° 0 mm 1 mps 718 mmHg 51%
    10:00 +30°C° 0 mm 1 mps 718 mmHg 47%
    11:00 +32°C° 0 mm 2 mps 719 mmHg 43%
    12:00 +32°C° 0 mm 2 mps 718 mmHg 42%
    13:00 +34°C° 0 mm 2 mps 718 mmHg 40%
    14:00 +35°C° 0 mm 2 mps 718 mmHg 39%
    15:00 +34°C° 0 mm 2 mps 718 mmHg 44%
    16:00 +32°C° 0 mm 2 mps 718 mmHg 49%
    17:00 +31°C° 0 mm 2 mps 718 mmHg 54%
    18:00 +29°C° 0 mm 2 mps 719 mmHg 58%
    19:00 +28°C° 0 mm 2 mps 720 mmHg 62%
    20:00 +26°C° 0 mm 2 mps 720 mmHg 66%
    21:00 +25°C° 0 mm 2 mps 721 mmHg 69%
    22:00 +24°C° 0 mm 2 mps 721 mmHg 73%
    23:00 +24°C° 0 mm 2 mps 721 mmHg 77%

    28 April, Saturday

    Time Temperature Precipitation Wind Pressure Humidity
    00:00 +23°C° 0 mm 2 mps 721 mmHg 81%
    01:00 +23°C° 0 mm 1 mps 721 mmHg 85%
    02:00 +22°C° 0 mm 1 mps 721 mmHg 89%
    03:00 +22°C° 0.1 mm 1 mps 721 mmHg 89%
    04:00 +22°C° 0.1 mm 1 mps 721 mmHg 89%
    05:00 +22°C° 0.1 mm 1 mps 721 mmHg 90%
    06:00 +22°C° 0 mm 1 mps 721 mmHg 88%
    07:00 +22°C° 0 mm 1 mps 722 mmHg 87%
    08:00 +22°C° 0 mm 1 mps 722 mmHg 86%
    09:00 +24°C° 0 mm 1 mps 722 mmHg 81%
    10:00 +25°C° 0 mm 1 mps 722 mmHg 77%
    11:00 +26°C° 0 mm 2 mps 722 mmHg 72%
    12:00 +27°C° 0 mm 2 mps 721 mmHg 71%
    13:00 +27°C° 0 mm 2 mps 720 mmHg 69%
    14:00 +28°C° 0 mm 2 mps 720 mmHg 67%
    15:00 +28°C° 0 mm 1 mps 719 mmHg 69%
    16:00 +27°C° 0 mm 1 mps 719 mmHg 72%
    17:00 +27°C° 0 mm 1 mps 719 mmHg 74%
    18:00 +26°C° 0 mm 1 mps 719 mmHg 78%
    19:00 +25°C° 0 mm 1 mps 720 mmHg 83%
    20:00 +24°C° 0 mm 1 mps 720 mmHg 87%
    21:00 +24°C° 0 mm 1 mps 720 mmHg 88%
    22:00 +24°C° 0 mm 1 mps 720 mmHg 89%
    23:00 +23°C° 0 mm 1 mps 720 mmHg 90%
    Show more